Regional Weather Roundup
Issued by NWS Upton, NY

Current Version | Previous Version | Text Only | Print | Product List | Glossary On
Versions: 1 2 3 4 5 6 7 8 9 10 11 12 13 14 15 16 17 18 19 20 21 22 23 24 25 26 27 28 29 30 31 32 33 34 35 36 37 38 39 40 41 42 43 44 45 46 47 48 49 50
000
ASUS41 KOKX 301407
RWROKX

REGIONAL WEATHER ROUNDUP
NATIONAL WEATHER SERVICE NEW YORK NY
1000 AM EDT MON MAR 30 2015

NOTE: "FAIR" INDICATES FEW OR NO CLOUDS BELOW 12,000 FEET WITH NO
SIGNIFICANT WEATHER AND/OR OBSTRUCTIONS TO VISIBILITY.

NYZ071-072-176-178-NJZ106-104-301500-
NEW YORK CITY METRO AREA


CITY           SKY/WX    TMP DP  RH WIND       PRES   REMARKS
CENTRAL PARK   CLOUDY    39  29  67 SW12G18   29.90F WCI  32
LAGUARDIA APRT CLOUDY    40  29  64 SW9G16    29.89F WCI  34
KENNEDY INTL   CLOUDY    40  29  64 SW15      29.91S WCI  32
NEWARK/LIBERTY CLOUDY    38  31  76 SW12      29.89F WCI  30
BRNX BOT. GARD   N/A     37  32  81 SW10      29.91S WCI  30
TETERBORO      CLOUDY    38  30  73 SW13      29.87F WCI  30
$$

NYZ177-179-078>081-301500-
LONG ISLAND NEW YORK

CITY           SKY/WX    TMP DP  RH WIND       PRES   REMARKS
FARMINGDALE    CLOUDY    39  34  82 SW14      29.90F WCI  31
ISLIP          LGT RAIN  39  32  76 SW17G28   29.88F WCI  30
SHIRLEY        LGT RAIN  39  32  76 SW13G23   29.91F WCI  31
WESTHAMPTON    LGT RAIN  40  31  70 SW13G18   29.92F WCI  32
MONTAUK POINT    N/A     40  31  70 S9        29.92F WCI  34
$$

NYZ052-065-067-301500-
HUDSON VALLEY

CITY           SKY/WX    TMP DP  RH WIND       PRES   REMARKS
WHITE PLAINS   CLOUDY    36  30  79 SW6       29.85F WCI  31
NEWBURGH       CLOUDY    36  27  69 W6        29.83F WCI  31
MONTGOMERY     CLOUDY    35  29  78 S5        29.82F WCI  31
POUGHKEEPSIE   CLOUDY    36  27  69 S5        29.83F WCI  32
ALBANY         FLURRIES  34  28  79 S17G25    29.75F WCI  23
$$

NJZ001-105-106-008-010-013-015-019>022-104-301500-
NEW JERSEY

CITY           SKY/WX    TMP DP  RH WIND       PRES   REMARKS
NEWARK/LIBERTY CLOUDY    38  31  76 SW12      29.89F WCI  30
TETERBORO      CLOUDY    38  30  73 SW13      29.87F WCI  30
CALDWELL       CLOUDY    37  28  70 SW8       29.88F WCI  31
MORRISTOWN     CLOUDY    37  30  75 SW13      29.88F WCI  29
SOMERVILLE     CLOUDY    38  30  73 SW5       29.87F WCI  34
SUSSEX         CLOUDY    35  28  75 SW7       29.84S WCI  29
ANDOVER          N/A     36  28  73 SW7       29.85S WCI  30
TRENTON        CLOUDY    39  32  76 SW8       29.89S WCI  33
MILLVILLE      CLOUDY    40  34  79 VRB6      29.93F
ATLANTIC CITY  CLOUDY    39  33  79 SW10      29.93F WCI  32
WRIGHTSTOWN    NOT AVBL
TOMS RIVER     CLOUDY    37  34  87 SW12      29.92S WCI  30
BELMAR         CLOUDY    37  28  70 SW10      29.90S WCI  30
$$

PAZ047>061-062-071-301500-
EASTERN PENNSYLVANIA

CITY           SKY/WX    TMP DP  RH WIND       PRES   REMARKS
PHILADELPHIA   CLOUDY    41  33  73 SW15      29.91F
ALLENTOWN      CLOUDY    39  27  62 S8        29.86F WCI  33
SCRANTON       CLOUDY    39  26  59 S12       29.79F WCI  32
$$

CTZ002-004>006-009-010-012-RIZ004-006-007-MAZ004-011-015-301500-
SOUTHERN NEW ENGLAND
 IN CT

CITY           SKY/WX    TMP DP  RH WIND       PRES   REMARKS
BRADLEY INTL   CLOUDY    35  28  75 S8        29.85S WCI  29
HARTFORD       CLOUDY    35  30  82 S9        29.87F WCI  28
DANBURY        CLOUDY    34  27  75 SW6       29.85F WCI  29
WTRBRY/OXFORD  CLOUDY    34  25  69 SW6       29.85F WCI  29
BRIDGEPORT     CLOUDY    37  35  92 SW7       29.89F WCI  32
MERIDEN        CLOUDY    34  31  88 S8        29.88F WCI  27
NEW HAVEN      CLOUDY    36  33  89 S3        29.89F
CHESTER        CLOUDY    34  32  93 S7        29.88F WCI  28
GROTON         CLOUDY    38  34  85 SW12      29.90F WCI  30
WILLIMANTIC    CLOUDY    35  30  82 S14G20    29.87F WCI  26

 IN RI

CITY           SKY/WX    TMP DP  RH WIND       PRES   REMARKS
PROVIDENCE     CLOUDY    38  27  64 SW16G22   29.89F WCI  29
BLOCK ISLAND   CLOUDY    39  28  65 SW14      29.91F WCI  31
WESTERLY       CLOUDY    38  30  73 SW10      29.91F WCI  31

 IN MA

CITY           SKY/WX    TMP DP  RH WIND       PRES   REMARKS
BOSTON         LGT SNOW  34  29  82 S17       29.87F WCI  23
WORCESTER      CLOUDY    31  26  82 SW15G25   29.80S WCI  20
WESTFIELD      CLOUDY    34  26  72 S13       29.83F WCI  25
PROVINCETOWN   CLOUDY    37  28  70 S12G22    29.92F WCI  30
NANTUCKET      CLOUDY    41  30  65 S15G23    29.97F
$$

ANZ330-335-338-340-345-350-353-355-301500-
COASTAL MARINE OBSERVATIONS


STATION/POSITION TIME  SKY/WX   TEMP    WIND        PRES    VSBY  WAVE
                                AIR SEA DIR/SP/G                  HT/PER
                 (UTC)          (F)     (DEG/KT/KT) (MB)    (MI)  (FT/S)
NY HARB ENTRANCE 1350            39 38  230/ 17/ 21 1012.1          4/10
4S FIRE IS       1303               37                N/A           5/ 6
20S FIRE ISLAND  1250               38              1013.7          5/ 6
23SW MTP         1350                                 N/A           5/ 5
HUDSON CANYON    NOT AVBL
EXECUTION ROCKS  NOT AVBL
WESTERN LI SOUND NOT AVBL
CENTRAL LI SOUND NOT AVBL
EASTERN LI SOUND NOT AVBL
ROBBINS REEF     1300            37     230/ 12/ 18 1011.2
$$


>>>>>>>>>>>>>>>>>>>>>>>>>>>> KEY <<<<<<<<<<<<<<<<<<<<<<<<<<<
>                                                          <
>     SKY/WX - SKY CONDITION/PRESENT WEATHER               <
>     TMP    - TEMPERATURE IN FAHRENHEIT                   <
>     DP     - DEWPOINT IN FAHRENHEIT                      <
>     RH     - RELATIVE HUMIDITY IN PERCENT                <
>     WIND   - DIRECTION AND SPEED IN MPH                  <
>     PRES   - MEAN SEA LEVEL PRESSURE IN INCHES OF HG     <
>     WCI    - WIND CHILL INDEX                            <
>     VSB    - VISIBILITY IN MILES                         <
>     HX     - HEAT INDEX                                  <
>     TC     - TEMPERATURE IN CELSIUS                      <
>     VRB    - VARIABLE WIND DIRECTION                     <
>                                                          <
>>>>>>>>>>>>>>>>>>>>>>>>>>>> KEY <<<<<<<<<<<<<<<<<<<<<<<<<<<





USA.gov is the U.S. government's official web portal to all federal, state and local government web resources and services.